This is the latest recevied weather packets stored in our database for station/object KO4LCK. If no packets are shown the sender has not sent any weather packets the latest 10 day(s).
| Time | Temp. | Humidity | Pressure | Rain* | Wind** | Luminosity | Snow |
|---|---|---|---|---|---|---|---|
| 1788267668 | 26.11° C | 80% | 1022.1 hPa | 0 mm | - | 183 W/m² | - |
| 1788267366 | 25.56° C | 83% | 1022 hPa | 0 mm | - | 169 W/m² | - |
| 1788267056 | 24.44° C | 87% | 1022.1 hPa | 0 mm | - | 156 W/m² | - |
| 1788266756 | 23.33° C | 89% | 1022 hPa | 0 mm | - | 116 W/m² | - |
| 1788266467 | 23.33° C | 90% | 1022 hPa | 0 mm | - | 107 W/m² | - |
| 1788266146 | 22.78° C | 91% | 1022.1 hPa | 0 mm | - | 49 W/m² | - |
| 1788265845 | 22.78° C | 92% | 1022.1 hPa | 0 mm | - | 47 W/m² | - |
| 1788265544 | 22.22° C | 93% | 1021.9 hPa | 0 mm | - | 45 W/m² | - |
| 1788265244 | 22.22° C | 93% | 1021.9 hPa | 0 mm | - | 42 W/m² | - |
| 1788264944 | 21.67° C | 94% | 1021.9 hPa | 0 mm | - | 39 W/m² | - |
| 1788264639 | 21.67° C | 95% | 1021.9 hPa | 0 mm | - | 36 W/m² | - |
| 1788264339 | 21.67° C | 95% | 1021.8 hPa | 0 mm | - | 34 W/m² | - |
| 1788264034 | 21.11° C | 95% | 1021.7 hPa | 0 mm | - | 30 W/m² | - |
| 1788263730 | 21.11° C | 95% | 1021.6 hPa | 0 mm | - | 27 W/m² | - |
| 1788263427 | 21.11° C | 95% | 1021.6 hPa | 0 mm | - | 24 W/m² | - |
| 1788263122 | 20.56° C | 95% | 1021.6 hPa | 0 mm | - | 21 W/m² | - |
| 1788262821 | 20.56° C | 95% | 1021.3 hPa | 0 mm | - | 17 W/m² | - |
| 1788262520 | 20.56° C | 95% | 1021 hPa | 0 mm | - | 12 W/m² | - |
| 1788262220 | 20.56° C | 95% | 1021.1 hPa | 0 mm | - | 11 W/m² | - |
| 1788261910 | 20.56° C | 95% | 1021.3 hPa | 0 mm | - | 7 W/m² | - |
| 1788261605 | 20.56° C | 95% | 1021.4 hPa | 0 mm | - | 5 W/m² | - |
| 1788261303 | 20.56° C | 95% | 1021.1 hPa | 0 mm | - | 3 W/m² | - |
| 1788261002 | 20.56° C | 95% | 1021.1 hPa | 0 mm | - | 1 W/m² | - |
| 1788260698 | 20.56° C | 95% | 1020.9 hPa | 0 mm | - | 1 W/m² | - |
| 1788260394 | 20.56° C | 95% | 1020.9 hPa | 0 mm | - | 0 W/m² | - |
* Rain latest hour (hover to see other rain measurements)
** Current wind speed in m/s (hover to see current wind gust speed)